Location: ?
(35.4214°N, 139.3011°E)
Time: 22:10:31
(UTC+00:00)

MetOp-A - Pass Details

Date: 14 July 2020
Orbit: 819 x 821 km, 98.5° (Epoch: 10 August)

Event Time Altitude Azimuth Distance (km) Brightness Sun altitude
Exits shadow 10:56:06 - 169° (S) 2,922 6.6 -10.8°
Reaches altitude 10° 10:57:23 10° 170° (S) 2,409 6.1 -11.0°
Maximum altitude 11:02:44 79° 257° (WSW) 838 4.3 -11.8°
Drops below altitude 10° 11:08:06 10° 345° (NNW) 2,423 7.4 -12.7°
Sets 11:10:28 0° 346° (NNW) 3,359 8.2 -13.1°
